Find Starlink 5623

NORAD ID: 55405 Int'l Des: 2023-014 Owner: SPXS Country: US Constellation: starlink operational
LEOCIRCULAR

Live Position

Loading 3D Globe...

About Starlink 5623

Description loading...

Upcoming Passes

Passes for default location (London). Set your location on the main map for personalized predictions.

Altitude History

Loading altitude history...

Two-Line Element Set

1 55405U 23014Q 26120.89046961 .00000588 00000-0 57085-4 0 9993
2 55405 69.9983 292.8752 0003098 268.0502 92.0303 14.98332219179874
Epoch: Apr 30, 2026 • Age: 13 hours

Current Status

Altitude 583.3 km
Velocity 7.57 km/s
Sub-Earth Point 58.27°N, 49.18°W
Launch Date Jan 31, 2023
Age 3.2 years
Type internet

Technical Details

Classification Payload
Mass 305.00 kg
Dry Mass 290.00 kg
Total Mass 305.00 kg
Length 0.20 m
Diameter 2.80 m
Span 9.00 m
Shape Box + pan
Manufacturer SPXS
Bus Type Starlink
Phase Status In Orbit
Owner/State SPXS/US

Most Searched